Find STARLINK-37441

NORAD ID: 68858 Int'l Des: 2026-094V Owner: starlink Country: USA Constellation: starlink operational
LEOCIRCULARRETROGRADE

Live Position

Loading 3D Globe...

About STARLINK-37441

Description loading...

Upcoming Passes

Passes for default location (London). Set your location on the main map for personalized predictions.

Altitude History

Loading altitude history...

Two-Line Element Set

1 68858U 26094V 26120.66670139 -.01692503 94667-3 -22267-2 0 9999
2 68858 97.2829 134.1648 0001415 77.3554 145.1936 16.07000600 1722
Epoch: Apr 30, 2026 • Age: 31 hours

Current Status

Altitude 274.2 km
Velocity 7.75 km/s
Sub-Earth Point 51.84°N, 74.37°W
Type internet

Most Searched